Orbital Elements at Epoch 2459200.5 (2020-Dec-17.0) TDB
Reference: JPL 16 (heliocentric ecliptic J2000)
Element | Value | Uncertainty (1-sigma) | Units |
e | .08106979457501876 | 4.8104e-08 | |
a | 2.523970374926055 | 1.27e-08 | au |
q | 2.319352615117367 | 1.2017e-07 | au |
i | 1.992060035515909 | 3.3312e-06 | deg |
node | 316.6083360965258 | 0.00015862 | deg |
peri | 295.4551310820568 | 0.00016076 | deg |
M | 129.0871039903254 | 2.6489e-05 | deg |
tp | 2458675.323646449727 (2019-Jul-10.82364645) | 0.00010838 | TDB |
period | 1464.619481216867 4.01 | 1.1054e-05 3.026e-08 | d yr |
n | .2457976318196293 | 1.8551e-09 | deg/d |
Q | 2.728588134734743 | 1.3729e-08 | au |
|
| | Orbit Determination Parameters
Additional Information
|